TimeEST,TemperatureF,Dew PointF,Humidity,Sea Level PressureIn,VisibilityMPH,Wind Direction,Wind SpeedMPH,Gust SpeedMPH,PrecipitationIn,Events,Conditions,WindDirDegrees,DateUTC
12:00 AM,68.0,66.2,94,30.05,2.0,Calm,Calm,-,N/A,,Scattered Clouds,0,2013-01-17 05:00:00
12:09 AM,68.0,68.0,100,30.05,10.0,Calm,Calm,-,N/A,,Mostly Cloudy,0,2013-01-17 05:09:00
12:53 AM,69.1,68.0,96,30.05,10.0,ESE,4.6,-,N/A,,Overcast,120,2013-01-17 05:53:00
1:53 AM,70.0,66.9,90,30.04,10.0,SE,4.6,-,N/A,,Clear,140,2013-01-17 06:53:00
2:53 AM,66.0,64.0,93,30.04,10.0,Calm,Calm,-,N/A,,Partly Cloudy,0,2013-01-17 07:53:00
3:53 AM,64.0,63.0,96,30.04,7.0,Calm,Calm,-,N/A,,Clear,0,2013-01-17 08:53:00
4:22 AM,64.4,64.4,100,30.04,1.8,Calm,Calm,-,N/A,,Clear,0,2013-01-17 09:22:00
4:30 AM,64.4,64.4,100,30.04,2.5,Calm,Calm,-,N/A,,Clear,0,2013-01-17 09:30:00
4:37 AM,64.4,64.4,100,30.04,10.0,Calm,Calm,-,N/A,,Clear,0,2013-01-17 09:37:00
4:53 AM,64.9,64.0,97,30.04,6.0,Calm,Calm,-,N/A,,Clear,0,2013-01-17 09:53:00
5:53 AM,64.4,64.4,100,30.04,10.0,Calm,Calm,-,N/A,,Clear,0,2013-01-17 10:53:00
6:53 AM,63.0,62.1,97,30.06,10.0,Calm,Calm,-,N/A,,Scattered Clouds,0,2013-01-17 11:53:00
7:53 AM,66.9,66.0,97,30.07,10.0,ESE,3.5,-,N/A,,Partly Cloudy,120,2013-01-17 12:53:00
8:53 AM,75.9,70.0,82,30.09,10.0,South,4.6,-,N/A,,Mostly Cloudy,180,2013-01-17 13:53:00
9:53 AM,78.1,69.1,74,30.10,10.0,SSE,8.1,-,N/A,,Overcast,160,2013-01-17 14:53:00
10:53 AM,79.0,68.0,69,30.09,10.0,South,4.6,-,N/A,,Overcast,170,2013-01-17 15:53:00
11:29 AM,71.6,66.2,83,30.08,10.0,WSW,15.0,-,0.00,Rain,Light Rain,240,2013-01-17 16:29:00
11:44 AM,71.6,68.0,88,30.08,3.0,West,12.7,-,0.00,Rain,Light Rain,260,2013-01-17 16:44:00
11:53 AM,71.1,69.1,93,30.08,10.0,West,12.7,-,0.00,,Overcast,260,2013-01-17 16:53:00
12:42 PM,69.8,66.2,88,30.06,2.5,WSW,10.4,-,0.01,Rain,Light Rain,250,2013-01-17 17:42:00
12:53 PM,70.0,66.9,90,30.06,2.5,West,10.4,-,0.01,Rain,Light Rain,260,2013-01-17 17:53:00
1:00 PM,69.8,66.2,88,30.05,2.5,West,9.2,-,0.01,Rain,Light Rain,260,2013-01-17 18:00:00
1:16 PM,69.8,68.0,94,30.02,7.0,NE,5.8,-,0.01,Rain,Light Rain,50,2013-01-17 18:16:00
1:53 PM,73.0,69.1,87,30.01,10.0,East,5.8,-,0.01,,Overcast,100,2013-01-17 18:53:00
2:53 PM,75.0,68.0,79,30.01,10.0,SW,4.6,-,N/A,,Overcast,230,2013-01-17 19:53:00
3:53 PM,77.0,66.9,71,30.01,10.0,WSW,8.1,-,N/A,,Scattered Clouds,240,2013-01-17 20:53:00
4:53 PM,79.0,64.9,62,30.01,10.0,WSW,8.1,-,N/A,,Partly Cloudy,250,2013-01-17 21:53:00
5:53 PM,73.9,64.9,73,30.02,10.0,West,9.2,-,N/A,,Partly Cloudy,270,2013-01-17 22:53:00
6:53 PM,70.0,64.9,84,30.05,10.0,West,8.1,-,N/A,,Clear,270,2013-01-17 23:53:00
7:53 PM,69.1,64.0,84,30.08,10.0,NNW,19.6,25.3,N/A,,Mostly Cloudy,330,2013-01-18 00:53:00
8:48 PM,64.4,57.2,77,30.11,10.0,NNW,12.7,25.3,N/A,,Overcast,340,2013-01-18 01:48:00
8:53 PM,64.9,57.9,78,30.11,10.0,NNW,13.8,25.3,N/A,,Overcast,340,2013-01-18 01:53:00
9:14 PM,64.4,57.2,77,30.12,10.0,NNW,16.1,-,N/A,,Overcast,330,2013-01-18 02:14:00
9:53 PM,64.0,55.9,75,30.11,10.0,NNW,11.5,-,N/A,,Mostly Cloudy,330,2013-01-18 02:53:00
10:10 PM,62.6,57.2,82,30.11,10.0,NNW,9.2,-,N/A,,Scattered Clouds,330,2013-01-18 03:10:00
10:53 PM,63.0,55.9,78,30.12,10.0,NW,10.4,-,N/A,,Clear,320,2013-01-18 03:53:00
11:53 PM,62.1,55.0,78,30.12,10.0,NW,10.4,-,N/A,,Clear,320,2013-01-18 04:53:00